Starlink 32642

operational
NORAD ID: 62211 Int'l Des: 2024-229 Owner: SPXS Country: US Constellation: starlink
LEOCIRCULAR

Starlink 32642について

説明を読み込み中...

リアルタイム位置

3D地球を読み込み中...

次回通過

高度履歴

Altitude vs Time

uPlot chart will show altitude changes over time

軌道要素

1 62211U 24229V 25303.24140170 .00027811 00000-0 10161-2 0 9993
2 62211 43.0007 287.1939 0001248 249.9733 110.0984 15.27587763 50615
Epoch: Oct 30, 2025 • Age: 14 hours

現在のステータス

高度 485.1 km
速度 7.62 km/s
衛星直下点 -12.31°S, 66.52°W
打ち上げ日 Dec 4, 2024
運用期間 0.9 years
タイプ internet

技術仕様

分類 Payload
質量 730.00 kg
乾燥質量 700.00 kg
総質量 730.00 kg
長さ 0.30 m
直径 4.10 m
スパン 29.00 m
形状 Box + pan
製造者 SPXS
バスタイプ Starlink V2M
フェーズステータス In Orbit
所有者/国 SPXS/US

大規模コンステレーション

Loading constellations...